Regional Weather Roundup
Issued by NWS Little Rock, AR

Home | Current Version | Previous Version | Graphics & Text | Print | Product List | Glossary On
Versions: 1 2 3 4 5 6 7 8 9 10 11 12 13 14 15 16 17 18 19 20 21 22 23 24 25 26 27 28 29 30 31 32 33 34 35 36 37 38 39 40 41 42 43 44 45 46 47 48 49 50
000
ASUS44 KLZK 190605
RWRLZK

WEATHER ROUNDUP FOR ARKANSAS
NATIONAL WEATHER SERVICE LITTLE ROCK AR
1200 AM CST FRI DEC 19 2014

NOTE: "FAIR" INDICATES FEW OR NO CLOUDS BELOW 12,000 FEET WITH NO
SIGNIFICANT WEATHER AND/OR OBSTRUCTIONS TO VISIBILITY.

ARZ001-003-010-029-190700-
NORTHWEST ARKANSAS

CITY           SKY/WX    TMP DP  RH WIND       PRES   REMARKS
FAYETTEVILLE   CLOUDY    40  39  97 CALM      30.20F FOG
6HR MIN TEMP:  39; 6HR MAX TEMP:  40;

FORT SMITH     CLOUDY    41  38  89 E3        30.23F
6HR MIN TEMP:  41; 6HR MAX TEMP:  42;

HARRISON       CLOUDY    37  37 100 SE5       30.22S FOG
6HR MIN TEMP:  37; 6HR MAX TEMP:  39;

BENTONVILLE    CLOUDY    39  37  93 NE3       30.21F VSB 1
6HR MIN TEMP:  39; 6HR MAX TEMP:  39;

ROGERS         FOG       39  39 100 CALM      30.21F VSB 1/2
6HR MIN TEMP:  39; 6HR MAX TEMP:  39;

SILOAM SPGS    CLOUDY    39  34  81 CALM      30.22S VSB 3/4
6HR MIN TEMP:  39; 6HR MAX TEMP:  39;

HIGHFILL       CLOUDY    40  39  97 N3        30.20F FOG
6HR MIN TEMP:  39; 6HR MAX TEMP:  40;

$$

ARZ004-005-016-190700-
NORTH CENTRAL ARKANSAS

CITY           SKY/WX    TMP DP  RH WIND       PRES   REMARKS
BATESVILLE     CLOUDY    39  37  93 CALM      30.25F
6HR MIN TEMP:  39; 6HR MAX TEMP:  39;

FLIPPIN        CLOUDY    37  34  87 CALM      30.23F
6HR MIN TEMP:  37; 6HR MAX TEMP:  39;

MTN HOME       FOG       37  37 100 CALM      30.23F VSB 1/2
6HR MIN TEMP:  37; 6HR MAX TEMP:  38;

$$

ARZ040-041-190700-
WEST CENTRAL ARKANSAS

CITY           SKY/WX    TMP DP  RH WIND       PRES   REMARKS
MENA           CLOUDY    43  43 100 E6        30.19F VSB 1
MOUNT IDA      CLOUDY    41  39  93 CALM      30.18F
6HR MIN TEMP:  41; 6HR MAX TEMP:  44;

$$

ARZ009-017-025-026-028-190700-
NORTHEAST ARKANSAS

CITY           SKY/WX    TMP DP  RH WIND       PRES   REMARKS
CORNING        CLOUDY    37  36  93 NE8       30.28F FOG
JONESBORO      CLOUDY    39  37  92 NE7       30.25F
6HR MIN TEMP:  39; 6HR MAX TEMP:  41;

NEWPORT        CLOUDY    41  39  92 NE8       30.27F
6HR MIN TEMP:  41; 6HR MAX TEMP:  42; 6HR PCP: TRACE;

WALNUT RIDGE   PTCLDY    39  34  81 N8        30.27S
6HR MIN TEMP:  39; 6HR MAX TEMP:  41;

BLYTHEVILLE    CLOUDY    40  37  89 NE8       30.26F
6HR MIN TEMP:  40; 6HR MAX TEMP:  42;

$$

ARZ022-023-033-042-044-190700-
CENTRAL ARKANSAS

CITY           SKY/WX    TMP DP  RH WIND       PRES   REMARKS
LITTLE ROCK    CLOUDY    42  38  85 N6        30.25S
6HR MIN TEMP:  42; 6HR MAX TEMP:  43;

N LITTLE ROCK  CLOUDY    40  40 100 NE5       30.25S
6HR MIN TEMP:  40; 6HR MAX TEMP:  40;

JACKSONVILLE   CLOUDY    41  39  94 NE5       30.24S
6HR MIN TEMP:  41; 6HR MAX TEMP:  41;

SEARCY         CLOUDY    41  39  93 N6        30.25F FOG
6HR MIN TEMP:  41; 6HR MAX TEMP:  41;

HOT SPRINGS    CLOUDY    41  39  93 NE6       30.22F
6HR MIN TEMP:  41; 6HR MAX TEMP:  42;

RUSSELLVILLE   CLOUDY    41  39  93 CALM      30.23S
6HR MIN TEMP:  41; 6HR MAX TEMP:  42;

CLINTON        CLOUDY    41  39  93 CALM      30.26S FOG
$$

ARZ036-190700-
EAST ARKANSAS

CITY           SKY/WX    TMP DP  RH WIND       PRES   REMARKS
WEST MEMPHIS   CLOUDY    43  40  89 NE5       30.23F
6HR MIN TEMP:  42; 6HR MAX TEMP:  44;

$$

ARZ050-053-066-070-073-190700-
SOUTHWEST ARKANSAS

CITY           SKY/WX    TMP DP  RH WIND       PRES   REMARKS
ARKADELPHIA    CLOUDY    43  43 100 VRB6      30.23F
6HR MIN TEMP:  43; 6HR MAX TEMP:  44;

CAMDEN         CLOUDY    45  41  87 MISG      30.22F FOG
TEXARKANA      CLOUDY    44  43  96 NE7       30.19F FOG
6HR MIN TEMP:  44; 6HR MAX TEMP:  46;

EL DORADO      CLOUDY    46  44  93 NE7       30.20F FOG
6HR MIN TEMP:  46; 6HR MAX TEMP:  48;

DE QUEEN       CLOUDY    45  42  89 E8        30.19F
6HR MIN TEMP:  45; 6HR MAX TEMP:  46;

$$

ARZ056-057-069-190700-
SOUTHEAST ARKANSAS

CITY           SKY/WX    TMP DP  RH WIND       PRES   REMARKS
PINE BLUFF     CLOUDY    42  40  92 N7        30.23F
6HR MIN TEMP:  42; 6HR MAX TEMP:  43;

STUTTGART      CLOUDY    43  39  87 NE6       30.25R
6HR MIN TEMP:  41; 6HR MAX TEMP:  43;

MONTICELLO     CLOUDY    45  42  89 NE5       30.21F
6HR MIN TEMP:  45; 6HR MAX TEMP:  47;


$$





USA.gov is the U.S. government's official web portal to all federal, state and local government web resources and services.